Regional Weather Roundup
Issued by NWS

Home | Current Version | Previous Version | Text Only | Print | Product List | Glossary Off
Versions: 1 2 3 4 5 6 7 8 9 10 11 12 13 14 15 16 17 18 19 20 21 22 23 24 25 26 27 28 29 30 31 32 33 34 35 36 37 38 39 40 41 42 43 44 45 46 47 48 49 50

000
ASUS45 KBOI 030410
RWRID

IDAHO REGIONAL WEATHER ROUNDUP
NATIONAL WEATHER SERVICE BOISE ID
1000 PM MDT TUE JUN 02 2015

NOTE: "FAIR" INDICATES FEW OR NO CLOUDS BELOW 12000 FEET
WITH NO SIGNIFICANT WEATHER AND/OR OBSTRUCTIONS TO VISIBILITY

IDZ012-014-030500-
SOUTHWEST IDAHO


CITY           SKY/WX    TMP DP  RH WIND       PRES   REMARKS
BOISE          MOCLDY    63  46  54 W15G23    29.96R
CALDWELL       PTCLDY    57  43  58 NW9       30.00R
MOUNTAIN HOME  PTCLDY    67  41  39 N12       29.93R
$$

IDZ016-017-030500-
SOUTHCENTRAL IDAHO


CITY           SKY/WX    TMP DP  RH WIND       PRES   REMARKS
BURLEY         CLEAR     57  42  57 W3        29.95R
JEROME         CLEAR     63  40  42 W3        29.95R
TWIN FALLS     CLEAR     60  42  51 W6        29.94R
$$

IDZ019>023-030500-
SOUTHEAST IDAHO


CITY           SKY/WX    TMP DP  RH WIND       PRES   REMARKS
IDAHO FALLS    CLEAR     60  44  55 SW7       29.98R
POCATELLO      CLEAR     57  50  77 S7        29.98R
REXBURG        CLEAR     59  43  55 S9        29.98R
$$

IDZ006-010-011-018-031-032-030500-
CENTRAL IDAHO MOUNTAINS


CITY           SKY/WX    TMP DP  RH WIND       PRES   REMARKS
MCCALL         CLOUDY    50  46  86 S10       30.05R
HAILEY         PTCLDY    57  43  58 NW12      30.02R
STANLEY          N/A     49  39  68 S7        30.08R
SALMON           N/A     59  39  47 W6        30.00R
CHALLIS        MOCLDY    58  39  49 N5        30.00R
$$

IDZ002-004-006-007-026-030500-
NORTHERN IDAHO


CITY           SKY/WX    TMP DP  RH WIND       PRES   REMARKS
LEWISTON       MOCLDY    61  53  75 E10G18    29.95R
LOWELL           N/A    N/A N/A N/A SW3       30.03R
COEUR D`ALENE  CLOUDY    61  46  59 S6        29.93S
MULLAN PASS    MOCLDY    43  39  86 SW5       30.05R
$$



USA.gov is the U.S. government's official web portal to all federal, state and local government web resources and services.